RH
80 79 86 83 84 91 80 77 85 84 78 78 75 81 84 94 100 100 99 99 83 58 44 44 44 47 74
84 88 84 82 82 85 78 78 83 81 84 86 89 84 85 98 100 99 99 100 86 56 46 46 46 50 65
94 89 85 88 88 86 85 85 86 88 93 100 100 98 97 95 99 100 99 99 77 52 51 50 50 59 65
95 97 100 92 91 95 95 95 97 99 98 100 100 100 100 100 100 100 100 98 72 55 59 58 55 66 65
98 100 100 97 98 98 100 100 100 93 91 92 100 100 100 100 100 99 100 93 72 69 69 62 61 72 72
100 100 100 100 100 100 100 93 98 90 97 92 98 99 100 100 100 100 100 92 84 75 68 66 81 89 80
88 97 92 84 82 83 82 84 99 95 97 91 97 96 99 99 100 100 99 90 82 73 69 69 97 96 80
86 87 90 92 91 92 89 83 79 79 87 99 91 89 98 99 99 100 100 96 87 77 73 73 100 98 93
90 90 87 88 90 97 91 93 87 76 78 99 98 100 100 99 100 98 98 95 95 97 96 79 100 99 100
85 85 89 94 100 98 100 100 100 99 78 92 93 99 100 98 98 99 100 100 100 100 100 95 99 100 100
83 85 84 86 90 98 100 100 100 99 100 100 97 99 100 100 98 99 100 100 99 99 98 97 100 100 99
74 70 75 79 86 96 97 100 100 100 100 100 100 100 100 100 100 100 99 100 100 100 97 92 100 100 100
81 89 90 94 94 99 100 100 100 99 100 100 100 100 100 100 100 100 100 100 100 77 88 88 100 100 100
79 97 100 100 98 100 99 99 100 99 99 100 100 100 100 100 100 100 100 99 98 68 100 94 100 100 100
64 91 97 99 97 99 99 100 100 98 99 100 100 100 100 100 100 99 100 100 98 54 98 97 100 100 100
52 79 98 100 97 98 100 100 100 100 99 99 100 99 99 99 99 99 100 99 99 88 40 61 100 100 100
74 100 100 99 100 99 99 99 98 99 100 100 99 99 99 99 99 99 98 98 98 99 54 38 92 100 100
Wind_Speed
36 35 34 32 32 33 29 32 32 32 29 31 34 29 33 36 37 35 33 31 29 27 27 26 25 22 19
43 41 41 42 43 28 30 33 35 33 35 40 41 36 38 34 35 35 35 32 27 28 26 25 22 20 19
37 38 39 30 26 28 30 33 36 38 41 43 37 38 34 36 37 36 36 30 26 25 23 22 20 18 17
27 26 27 31 35 36 38 38 38 39 37 35 36 35 36 38 39 37 33 28 24 23 21 19 17 17 15
26 27 29 28 29 32 34 33 30 29 31 30 30 33 35 37 37 35 30 24 21 19 19 18 16 16 14
23 20 17 18 20 21 20 23 28 26 27 28 28 28 31 34 34 30 26 21 20 20 20 17 14 13 12
16 16 18 18 18 18 20 22 22 23 24 27 25 23 21 26 28 26 22 19 17 20 17 15 14 13 12
16 16 16 17 18 19 20 18 20 23 21 23 21 21 18 21 23 22 22 21 18 19 16 14 15 13 11
17 18 18 19 19 20 19 20 21 22 22 21 24 22 22 23 24 23 24 23 22 18 18 17 18 15 10
18 19 20 20 20 21 20 23 24 25 24 21 23 23 21 26 26 28 28 25 23 20 19 20 17 17 16
18 18 18 18 20 23 23 25 26 27 25 20 23 26 29 22 18 28 29 25 23 20 17 17 20 20 20
18 19 19 19 20 22 24 24 26 27 29 29 22 26 29 30 28 23 19 24 23 19 15 21 22 24 20
19 19 19 20 21 21 21 22 24 24 27 30 30 29 26 27 27 28 24 23 18 12 18 25 23 26 27
18 19 19 20 20 20 23 22 21 22 23 25 26 30 29 27 27 25 21 15 17 16 22 25 21 26 25
18 18 19 20 21 20 20 20 23 23 24 26 29 28 27 27 25 23 21 19 16 18 22 22 22 25 27
21 20 19 20 22 20 20 21 22 22 24 24 26 26 26 27 24 22 21 19 18 20 22 24 25 22 25
20 19 19 19 20 20 22 23 23 22 23 25 26 27 27 29 23 24 23 21 20 23 20 25 26 22 25
Wind_Direction
254 254 257 263 278 278 268 272 270 273 278 292 296 293 297 288 287 281 278 270 271 278 282 288 292 293 286
254 259 260 267 273 262 269 271 267 272 281 288 290 286 295 285 282 276 274 270 267 275 281 286 288 282 279
265 265 269 266 259 272 273 270 271 275 286 290 282 286 285 282 278 271 269 265 264 273 278 282 281 268 277
265 263 258 271 278 279 276 277 280 283 285 287 278 280 280 279 272 263 261 258 264 273 274 274 275 264 266
264 270 271 276 283 288 283 287 288 287 289 291 289 284 277 272 261 263 257 255 258 268 270 273 266 255 253
264 259 262 274 278 282 284 290 295 294 295 295 296 292 282 268 260 256 252 250 258 266 266 268 251 243 249
275 280 282 286 288 287 292 294 293 295 295 300 298 295 284 265 255 252 251 251 260 261 261 261 245 245 233
273 278 280 281 286 287 291 297 304 304 298 291 295 290 275 253 242 239 248 253 247 252 253 251 235 237 237
280 276 274 276 279 281 286 287 290 299 299 289 286 280 262 246 242 245 251 247 246 241 241 236 224 220 219
277 280 279 279 282 282 282 281 284 285 287 277 277 271 257 253 250 250 248 244 242 237 232 217 220 204 192
284 281 283 288 287 287 280 277 274 271 266 272 268 262 252 253 258 252 246 242 242 236 226 230 215 199 197
297 294 288 283 280 274 277 277 275 271 269 267 268 269 258 252 255 256 253 245 241 230 220 225 211 201 204
302 300 296 290 284 285 282 279 278 274 270 265 265 260 250 252 257 260 252 242 227 217 218 214 206 204 198
311 304 295 294 293 289 290 286 283 273 270 264 263 261 250 248 260 261 248 230 212 214 212 214 207 205 204
306 301 294 291 290 283 285 287 281 278 271 272 263 257 251 245 257 249 241 230 212 208 222 215 215 201 202
304 302 299 298 295 293 286 290 287 280 272 273 263 256 245 240 246 241 232 222 216 205 219 209 215 208 198
306 303 304 297 294 291 287 287 286 282 277 270 264 250 241 241 239 229 225 220 220 210 217 217 208 207 195